Portada
METAR-TAF:

METAR-TAF

Aeroports :

West Memphis, Arkansas, Estats Units d'Amèrica

latitud: 35-08N, longitud: 090-14W, altitud: 65 m

Observació

L'informe es va fer fa 37 minuts, a les 14:53 UTC
Vent 8 kt del Est/Sud-Est
Temperatura 24°C
Humitat 41%
Pressió 1023 hPa
Visibilitat: 16.1 km
Cel clar

METAR: KAWM 011453Z AUTO 12008KT 10SM CLR 24/10 A3022 RMK AO2 SLP228 T02390100 50003

Hora: 10:30 (15:30 UTC)


TAF: manca

Observacions i pronòstics meteorològics de més de 4000 aeroports (METAR i TAF).

Les estacions disponibles són els punts grocs i vermells al mapa.

Posi el ratolí al punt desitjat per veure el nom de l'estació.

Feu clic per veure les observacions i els pronòstics meteorològics.

Per canviar el mapa: feu clic els botons verds amb una creu de color negre per apropar; al botó verd amb un guió per allunyar la imatge; o en les fletxes verdes per a mapes adjacents.


METAR-TAF: